Tracking 17154 objects as of 1-August-2015
HD Live streaming from Space Station

GLOBALSTAR M086

Track GLOBALSTAR M086 now!
10-day predictions
GLOBALSTAR M086 is classified as:


NORAD ID: 38045
Int'l Code: 2011-080F
Perigee: 1,420.7 km
Apogee: 1,420.8 km
Inclination: 52.0 °
Period: 114.1 minutes
Semi major axis: 7791 km
RCS: 4.511 m2 (large)
Launch date: December 28, 2011
Source: Globalstar (GLOB)
Your satellite tracking list
Your tracking list is empty





NASA's NSSDC Master Catalog

Two Line Element Set (TLE):
1 38045U 11080F   15212.41430661 -.00000112  00000-0 -48062-4 0  9996
2 38045 051.9874 189.2305 0000104 240.2876 281.8973 12.62267290167917

Source of the keplerian elements: AFSPC

N2YO: 300